Tracking 19706 objects as of 17-Jun-2019
HD Live streaming from Space Station
objects crossing your sky now

MICROSAT-R DEB

Track MICROSAT-R DEB now!
10-day predictions


NORAD ID: 44220
Int'l Code: 2019-006CW
Perigee: 277.8 km
Apogee: 731.7 km
Inclination: 96.7 °
Period: 94.6 minutes
Semi major axis: 6875 km
RCS: Unknown
Launch date: January 24, 2019
Source: India (IND)
Launch site: SRIHARIKOTA (SRI)

Note: This is SATELLITE DEBRIS
aabbcc
Your satellite tracking list
Your tracking list is empty




NASA's NSSDC Master Catalog

Two Line Element Set (TLE):
1 44220U 19006CW  19167.69907001  .00119784  43089-5  10281-2 0  9997
2 44220  96.7054  71.4870 0330045  81.1851 282.6608 15.22720147  7281
Source of the keplerian elements: AFSPC